Oakland, CA

8:04 AM PDT on June 21, 2018 (GMT -0700)
Metro Oakland International

Weather History for KOAK - November, 2017

Change the Weather History Date:

Sunday, November 12, 2017

  Actual Average Record
Temperature  
Mean Temperature 56 °F 55 °F  
Max Temperature 63 °F 64 °F 72 °F (2016)
Min Temperature 48 °F 46 °F 34 °F (1985)
Degree Days  
Heating Degree Days 9 10  
Month to date heating degree days 107 103  
Since 1 July heating degree days 300 455  
Cooling Degree Days 0 0  
Month to date cooling degree days 0 0  
Year to date cooling degree days 312 137  
Growing Degree Days 6 (Base 50)    
Moisture  
Dew Point 49 °F    
Average Humidity 80    
Maximum Humidity 100    
Minimum Humidity 60    
Precipitation  
Precipitation 0.00 in 0.08 in 1.50 in (1984)
Month to date precipitation 0.55 0.91  
Year to date precipitation 20.80 15.61  
Sea Level Pressure  
Sea Level Pressure 30.12 in    
Wind  
Wind Speed 4 mph (SE)    
Max Wind Speed 9 mph    
Max Gust Speed 11 mph    
Visibility 10 miles    
Events      
T = Trace of Precipitation, MM = Missing Value Source: NWS Daily Summary

Daily Weather History Graph

Daily Weather History Graph

Search for Another Location

Airport or City:

Astronomy

Nov. 12, 2017 Rise Set
Actual Time 6:46 AM PST 4:59 PM PST
Civil Twilight 6:18 AM PST 5:27 PM PST
Nautical Twilight 5:46 AM PST 5:58 PM PST
Astronomical Twilight 5:15 AM PST 6:29 PM PST
Moon 12:56 AM PST (11/12) 2:15 PM PST (11/12)
Length of Visible Light 11h 09m
Length of Day
10h 13m
Waning Crescent, 29% of the Moon is Illuminated
Nov 12
Waning Crescent
Nov 18
New
Nov 26
First Quarter
Dec 3
Full
Dec 9
Last Quarter

Hourly Weather History & Observations

Time (PST) Temp. Dew Point Humidity Pressure Visibility Wind Dir Wind Speed Gust Speed Precip Events Conditions
12:53 AM 52.0 °F 48.9 °F 89% 30.10 in 10.0 mi Calm Calm - N/A   Scattered Clouds
1:53 AM 50.0 °F 48.0 °F 93% 30.10 in 10.0 mi Calm Calm - N/A   Scattered Clouds
2:30 AM 50.0 °F 48.9 °F 96% 30.10 in 10.0 mi NE 3.5 mph - N/A   Mostly Cloudy
2:53 AM 50.0 °F 50.0 °F 100% 30.10 in 10.0 mi Calm Calm - N/A   Mostly Cloudy
3:30 AM 51.1 °F 50.0 °F 96% 30.10 in 10.0 mi SE 4.6 mph - N/A   Mostly Cloudy
3:53 AM 48.9 °F 48.0 °F 97% 30.10 in 10.0 mi Calm Calm - N/A   Mostly Cloudy
4:53 AM 48.9 °F 48.0 °F 97% 30.11 in 10.0 mi East 3.5 mph - N/A   Mostly Cloudy
5:53 AM 51.1 °F 48.9 °F 92% 30.12 in 10.0 mi SE 5.8 mph - N/A   Mostly Cloudy
6:23 AM 51.1 °F 50.0 °F 96% 30.12 in 10.0 mi SE 8.1 mph - N/A   Mostly Cloudy
6:53 AM 50.0 °F 48.9 °F 96% 30.12 in 10.0 mi SE 4.6 mph - N/A   Mostly Cloudy
7:53 AM 52.0 °F 52.0 °F 100% 30.14 in 10.0 mi ESE 3.5 mph - N/A   Scattered Clouds
8:53 AM 54.0 °F 51.1 °F 90% 30.15 in 10.0 mi SSE 9.2 mph - N/A   Scattered Clouds
9:53 AM 57.0 °F 51.1 °F 81% 30.14 in 10.0 mi SE 6.9 mph - N/A   Scattered Clouds
10:53 AM 59.0 °F 51.1 °F 75% 30.14 in 10.0 mi SSE 6.9 mph - N/A   Scattered Clouds
11:53 AM 61.0 °F 48.9 °F 64% 30.12 in 10.0 mi SSW 4.6 mph - N/A   Mostly Cloudy
12:53 PM 61.0 °F 50.0 °F 67% 30.11 in 10.0 mi WSW 5.8 mph - N/A   Mostly Cloudy
1:53 PM 62.1 °F 48.9 °F 62% 30.10 in 10.0 mi WSW 4.6 mph - N/A   Scattered Clouds
2:53 PM 63.0 °F 48.9 °F 60% 30.10 in 10.0 mi WSW 3.5 mph - N/A   Partly Cloudy
3:53 PM 62.1 °F 52.0 °F 70% 30.10 in 10.0 mi WNW 4.6 mph - N/A   Partly Cloudy
4:53 PM 59.0 °F 50.0 °F 72% 30.11 in 10.0 mi NW 4.6 mph - N/A   Partly Cloudy
5:53 PM 57.9 °F 48.9 °F 72% 30.12 in 10.0 mi Calm Calm - N/A   Partly Cloudy
6:53 PM 57.9 °F 48.9 °F 72% 30.13 in 10.0 mi Calm Calm - N/A   Partly Cloudy
7:53 PM 53.1 °F 46.9 °F 80% 30.13 in 10.0 mi ENE 4.6 mph - N/A   Partly Cloudy
8:53 PM 54.0 °F 48.0 °F 80% 30.14 in 10.0 mi Calm Calm - N/A   Partly Cloudy
9:53 PM 52.0 °F 48.0 °F 86% 30.16 in 10.0 mi ENE 4.6 mph - N/A   Mostly Cloudy
10:53 PM 50.0 °F 46.0 °F 86% 30.16 in 10.0 mi East 3.5 mph - N/A   Scattered Clouds
11:53 PM 53.1 °F 48.9 °F 86% 30.17 in 10.0 mi East 5.8 mph - N/A   Mostly Cloudy